Tracking 29892 objects as of 21-Nov-2024
HD Live streaming from Space Station
objects crossing your sky now

FENGYUN 1C DEB

Track FENGYUN 1C DEB now!
10-day predictions


NORAD ID: 32458
Int'l Code: 1999-025DBW
Perigee: 689.9 km
Apogee: 759.4 km
Inclination: 99.0 °
Period: 99.1 minutes
Semi major axis: 7095 km
RCS: 0.0081 m2 (small)
Launch date: May 10, 1999
Source: People's Republic of China (PRC)
Launch site: Taiyaun Space Center, China (TSC)

Note: This is SATELLITE DEBRIS
Your satellite tracking list
Your tracking list is empty




NASA's NSSDC Master Catalog

Two Line Element Set (TLE):
1 32458U 99025DBW 24317.68444723  .00015990  00000-0  38599-2 0  9992
2 32458  99.0407 296.9617 0048957 128.5412 232.0184 14.52497889906786
Source of the keplerian elements: AFSPC